• Join FlightAware (Why Join?)
  • Login
  • US Flag 
03:47PM EST


 

Airport Tracker/Info


-or-


 

Live Flight TrackerFlight Track Log ✈ SWA3497 ✈ 21-Apr-2013 ✈ KIAD - KMDW

Flight Track Log - Related Links

Times and Time Zones

All times are in EDT time to prevent confusion due to time zone crossing. See the SWA3497 flight status page for this flight to view local times or setup timezone preferences in your user account.

Time Position Orientation Groundspeed Altitude Reporting Facility
EDT Latitude Longitude Course Direction KTS MPH feet Rate Location/Type
09:55AM 38.9500 -77.5167 252° West 168 193 1,900  Level Potomac TRACON
09:56AM 38.9333 -77.5833 252° West 220 253 3,900 2,380 Climbing Potomac TRACON
09:57AM 38.9167 -77.6667 256° West 247 284 6,700 2,632 Climbing Potomac TRACON
09:57AM 38.9000 -77.7500 256° West 259 298 8,900 2,620 Climbing Potomac TRACON
09:58AM 38.8978 -77.7733 263° West 265 305 9,800 2,805 Climbing Washington Center
09:59AM 38.9083 -77.8806 277° West 290 334 12,500 3,650 Climbing Washington Center
10:00AM 38.9250 -77.9825 282° West 301 346 17,100 3,521 Climbing Washington Center
10:01AM 38.9397 -78.0869 280° West 301 346 19,600 2,650 Climbing Washington Center
10:02AM 38.9519 -78.1994 278° West 307 353 22,400 3,025 Climbing Washington Center
10:03AM 38.9267 -78.3028 253° West 307 353 25,600 1,850 Climbing Washington Center
10:04AM 38.9014 -78.4083 253° West 307 353 26,100 700 Climbing Washington Center
10:05AM 38.9108 -78.5314 276° West 324 373 27,000 1,100 Climbing Washington Center
10:06AM 38.9242 -78.6681 277° West 360 414 28,300 1,500 Climbing Washington Center
10:07AM 38.9392 -78.8075 278° West 392 451 30,000 850 Climbing Washington Center
10:08AM 38.9519 -78.9497 277° West 399 459 30,000 50 Level Washington Center
10:09AM 38.9647 -79.0889 277° West 405 466 30,100 1,250 Climbing Washington Center
10:10AM 38.9794 -79.2258 278° West 405 466 32,500 2,050 Climbing Washington Center
10:11AM 38.9897 -79.3628 276° West 399 459 34,200 1,550 Climbing Washington Center
10:12AM 39.0022 -79.4969 277° West 393 452 35,600 1,350 Climbing Washington Center
10:13AM 39.0125 -79.6256 276° West 393 452 36,900 1,150 Climbing Washington Center
10:14AM 39.0244 -79.7625 276° West 399 459 37,900 550 Climbing Washington Center
10:15AM 39.0381 -79.9103 277° West 384 442 38,000 29 Climbing Washington Center
10:17AM 39.0633 -80.2278 276° West 390 449 38,000  Level Indianapolis Center
10:18AM 39.0742 -80.3653 276° West 387 445 38,000  Level Indianapolis Center
10:19AM 39.0867 -80.5033 277° West 389 448 38,000  Level Indianapolis Center
10:20AM 39.0983 -80.6697 275° West 389 448 38,000  Level Indianapolis Center
10:21AM 39.1089 -80.8081 276° West 391 450 38,000  Level Indianapolis Center
10:22AM 39.1203 -80.9478 276° West 394 453 38,000  Level Indianapolis Center
10:23AM 39.1319 -81.0867 276° West 392 451 38,000  Level Indianapolis Center
10:24AM 39.1817 -81.2181 296° West 406 467 38,000  Level Indianapolis Center
10:25AM 39.2350 -81.3469 298° West 411 473 38,000  Level Indianapolis Center
10:26AM 39.2969 -81.5008 298° West 406 467 38,000  Level Indianapolis Center
10:28AM 39.3486 -81.6292 298° West 404 465 38,000  Level Indianapolis Center
10:29AM 39.3997 -81.7583 297° West 405 466 38,000  Level Indianapolis Center
10:30AM 39.4525 -81.8850 298° West 403 464 38,000  Level Indianapolis Center
10:31AM 39.5039 -82.0128 298° West 401 461 38,000  Level Indianapolis Center
10:32AM 39.5597 -82.1558 297° West 400 460 38,000  Level Indianapolis Center
10:33AM 39.6106 -82.2858 297° West 400 460 38,000  Level Indianapolis Center
10:34AM 39.6628 -82.4153 298° West 401 461 38,000  Level Indianapolis Center
10:35AM 39.7133 -82.5439 297° West 399 459 38,000  Level Indianapolis Center
10:36AM 39.7639 -82.6736 297° West 399 459 38,000  Level Indianapolis Center
10:37AM 39.8142 -82.8014 297° West 395 455 38,000  Level Indianapolis Center
10:38AM 39.8636 -82.9306 297° West 395 455 38,000  Level Indianapolis Center
10:39AM 39.9225 -83.0817 297° West 399 459 38,000  Level Indianapolis Center
10:40AM 39.9708 -83.2108 296° West 398 458 38,000  Level Indianapolis Center
10:41AM 40.0228 -83.3406 298° West 399 459 38,000  Level Indianapolis Center
10:42AM 40.0731 -83.4725 297° West 401 461 38,000  Level Indianapolis Center
10:43AM 40.1231 -83.6044 296° West 402 463 38,000  Level Indianapolis Center
10:44AM 40.1725 -83.7350 296° West 400 460 38,000  Level Indianapolis Center
10:45AM 40.2242 -83.8694 297° West 405 466 38,000  Level Indianapolis Center
10:46AM 40.2792 -84.0183 296° West 404 465 38,000 -146 Level Indianapolis Center
10:47AM 40.3289 -84.1531 296° West 407 468 37,700 -634 Descending Indianapolis Center
10:48AM 40.3794 -84.2872 296° West 407 468 36,700 -968 Descending Indianapolis Center
10:49AM 40.4294 -84.4206 296° West 405 466 35,700 -927 Descending Indianapolis Center
10:50AM 40.4808 -84.5531 297° West 404 465 34,800 -927 Descending Indianapolis Center
10:51AM 40.5625 -84.6658 314° West 428 493 33,800 -919 Descending Indianapolis Center
10:52AM 40.6503 -84.7747 317° Northwest 429 494 32,900 -918 Descending Indianapolis Center
10:53AM 40.7050 -84.8406 318° Northwest 428 493 32,300 -990 Descending Chicago Center
10:54AM 40.7919 -84.9497 316° Northwest 430 495 31,300 -927 Descending Chicago Center
10:55AM 40.8792 -85.0583 317° Northwest 431 496 30,400 -919 Descending Chicago Center
10:56AM 40.9614 -85.1764 313° West 435 501 29,400 -1,073 Descending Chicago Center
10:57AM 41.0569 -85.3200 311° West 433 498 28,200 -1,073 Descending Chicago Center
10:58AM 41.1350 -85.4375 311° West 427 491 27,200 -968 Descending Chicago Center
10:59AM 41.2125 -85.5539 312° West 419 482 26,200 -1,073 Descending Chicago Center
11:00AM 41.2881 -85.6672 312° West 410 472 25,000 -585 Descending Chicago Center
11:01AM 41.3611 -85.7803 311° West 401 461 25,000 -878 Level Chicago Center
11:02AM 41.4353 -85.8911 312° West 399 459 23,200 -2,439 Descending Chicago Center
11:03AM 41.5056 -85.9983 311° West 398 458 20,000 -2,927 Descending Chicago Center
11:04AM 41.5236 -86.1447 279° West 391 450 17,200 -3,073 Descending Chicago Center
11:05AM 41.5231 -86.2872 270° West 386 444 13,700 -2,952 Descending Chicago Center
11:06AM 41.5222 -86.4522 270° West 373 429 11,100 -1,707 Descending Chicago Center
11:07AM 41.5214 -86.5850 270° West 361 415 10,200 -537 Descending Chicago Center
11:08AM 41.5197 -86.7244 269° West 357 411 10,000 -98 Descending Chicago Center
11:09AM 41.5200 -86.8447 270° West 328 377 10,000 -537 Level Chicago Center
11:10AM 41.5178 -86.9442 268° West 272 313 8,900 -1,171 Descending Chicago Center
11:11AM 41.5167 -87.0428 269° West 268 308 7,600 -1,377 Descending Chicago Center
11:12AM 41.5167 -87.1500 270° West 264 304 6,100 -1,339 Descending Chicago TRACON
11:13AM 41.5167 -87.2500 270° West 268 308 4,900 -1,000 Descending Chicago TRACON
11:14AM 41.5333 -87.3500 283° West 262 302 4,100 -444 Descending Chicago TRACON
11:15AM 41.5500 -87.4167 288° West 261 300 4,100 -185 Level Chicago TRACON
11:15AM 41.5481 -87.4464 265° West 262 302 3,900 -152 Descending Chicago Center
11:16AM 41.5592 -87.5406 279° West 261 300 3,900  Level Chicago Center
11:17AM 41.5708 -87.6347 279° West 260 299 3,900  Level Chicago Center
11:18AM 41.5822 -87.7278 279° West 259 298 3,900 -390 Level Chicago Center
11:19AM 41.6003 -87.8047 287° West 241 277 3,100 -788 Descending Chicago Center
11:20AM 41.6333 -87.8500 314° West 223 257 2,600 -367 Descending Chicago TRACON
11:21AM 41.6667 -87.8833 323° Northwest 184 212 2,500 -140 Descending Chicago TRACON
11:22AM 41.6917 -87.8681 25° Northeast 194 223 2,400 -222 Descending Chicago Center
11:22AM 41.7167 -87.8500 28° Northeast 175 201 2,300 -409 Descending Chicago TRACON
11:23AM 41.7500 -87.8333 20° North 182 209 1,800 -286 Descending Chicago TRACON
11:24AM 41.8000 -87.8167 14° North 138 159 1,700 -300 Descending Chicago TRACON
11:25AM 41.8000 -87.7833 90° East 138 159 1,200 -556 Descending Chicago TRACON